This demonstration page uses our WeatherBlox Daily Observations layout. Learn more.

Left ArrowRight Arrow

39.29038, -76.61219

Hourly Observations for May 17, 2017

Temp ( °F °C ) Dew Point ( °F °C ) Humidity (%) Winds ( mph kmh ) Pressure ( in mb ) Visibility ( mi km ) Precip ( " mm )
12:54 am 00:54 undefined 69 20.6 53 11.7 57 57 undefined N/A 30.00 1016 N/A 0.00 0.00
1:54 am 01:54 undefined 66 18.9 53 11.7 63 63 undefined N/A 29.99 1016 N/A 0.00 0.00
2:54 am 02:54 undefined 65 18.3 55 12.8 70 70 undefined N/A 29.98 1015 N/A 0.00 0.00
3:54 am 03:54 undefined 65 18.3 55 12.8 70 70 undefined N/A 29.99 1016 N/A 0.00 0.00
4:54 am 04:54 undefined 65 18.3 54 12.2 68 68 undefined N/A 30.00 1016 N/A 0.00 0.00
5:54 am 05:54 undefined 64 17.8 56 13.3 75 75 undefined N/A 30.01 1016 N/A 0.00 0.00
6:54 am 06:54 undefined 66 18.9 56 13.3 70 70 undefined N/A 30.03 1017 N/A 0.00 0.00
7:54 am 07:54 undefined 69 20.6 56 13.3 63 63 undefined N/A 30.04 1017 N/A 0.00 0.00
8:54 am 08:54 undefined 72 22.2 57 13.9 59 59 undefined N/A 30.05 1018 N/A 0.00 0.00
9:54 am 09:54 undefined 76 24.4 59 15 56 56 undefined N/A 30.05 1018 N/A 0.00 0.00
10:54 am 10:54 undefined 78 25.6 60 15.6 54 54 undefined N/A 30.04 1017 N/A 0.00 0.00
11:54 am 11:54 undefined 82 27.8 63 17.2 53 53 undefined N/A 30.03 1017 N/A 0.00 0.00
12:54 pm 12:54 undefined 83 28.3 64 17.8 53 53 undefined N/A 30.01 1016 N/A 0.00 0.00
1:54 pm 13:54 undefined 86 30 66 18.9 51 51 undefined N/A 29.99 1016 N/A 0.00 0.00
2:54 pm 14:54 undefined 91 32.8 66 18.9 44 44 undefined N/A 29.96 1015 N/A 0.00 0.00
3:54 pm 15:54 undefined 90 32.2 67 19.4 47 47 undefined N/A 29.95 1014 N/A 0.00 0.00
4:54 pm 16:54 undefined 92 33.3 67 19.4 44 44 undefined N/A 29.94 1014 N/A 0.00 0.00
5:54 pm 17:54 undefined 89 31.7 64 17.8 43 43 undefined N/A 29.94 1014 N/A 0.00 0.00
6:54 pm 18:54 undefined 88 31.1 63 17.2 43 43 undefined N/A 29.94 1014 N/A 0.00 0.00
7:54 pm 19:54 undefined 86 30 64 17.8 48 48 undefined N/A 29.95 1014 N/A 0.00 0.00
8:54 pm 20:54 undefined 84 28.9 66 18.9 55 55 undefined N/A 29.95 1014 N/A 0.00 0.00
9:54 pm 21:54 undefined 83 28.3 67 19.4 59 59 undefined N/A 29.96 1015 N/A 0.00 0.00
10:54 pm 22:54 undefined 82 27.8 66 18.9 58 58 undefined N/A 29.96 1015 N/A 0.00 0.00
11:54 pm 23:54 undefined 82 27.8 64 17.8 55 55 undefined N/A 29.96 1015 N/A 0.00 0.00

Powered by AerisWeather